Regional Weather Roundup
Issued by NWS Kansas City/Pleasant Hill, MO

Home | Current Version | Previous Version | Graphics & Text | Print | Product List | Glossary Off
Versions: 1 2 3 4 5 6 7 8 9 10 11 12 13 14 15 16 17 18 19 20 21 22 23 24 25 26 27

000
ASUS43 KEAX 272210
RWREAX

WEATHER ROUNDUP FOR EASTERN KANSAS AND NORTHWEST MISSOURI
NATIONAL WEATHER SERVICE KANSAS CITY/PLEASANT HILL MO
500 PM CDT TUE JUN 27 2017

KSZ040-057-103>105-MOZ028-029-037-043-272300-
...KANSAS CITY METROPOLITAN AREA...

CITY           SKY/WX    TMP DP  RH WIND       PRES   REMARKS
K.C. INTL      CLOUDY    79  66  64 S12       29.96F
K.C. DOWNTOWN  CLOUDY    82  65  56 S12G21    29.95F
LEES SUMMIT    CLOUDY    80  65  59 S12       29.98F
OLATHE - IXD   PTSUNNY   80  65  59 S15G24    29.97F
OLATHE - OJC   CLOUDY    80  66  62 S14       29.97F
LAWRENCE       CLOUDY    83  67  58 SE17G24   29.94F

$$

MOZ001>008-011>017-020>025-030>033-038>040-044>046-053-054-272300-
...NORTHERN AND CENTRAL MISSOURI...

CITY           SKY/WX    TMP DP  RH WIND       PRES   REMARKS
ST. JOSEPH     CLOUDY    79  65  62 S14       29.94F
MOSBY          MOCLDY    79  63  57 S10G17    29.97F
WARRENSBURG    MOSUNNY   79  63  57 SE9       29.99F
WHITEMAN AFB   NOT AVBL
CLINTON        PTSUNNY   81  66  61 S8        30.00F
SEDALIA        PTSUNNY   80  67  64 SE13      30.02F
WARSAW         NOT AVBL
CHILLICOTHE      N/A     80  60  50 S13G18    29.98F
KIRKSVILLE     SUNNY     78  54  43 SE12      30.02F

$$

MOZ041-047>049-056>058-063>065-088>090-097-272300-
...EASTERN AND SOUTHERN MISSOURI...

CITY           SKY/WX    TMP DP  RH WIND       PRES   REMARKS
ST. LOUIS INTL MOSUNNY   82  50  32 E7        30.06F
SPIRIT OF STL  MOSUNNY   80  52  37 VRB6      30.04F
COLUMBIA       SUNNY     79  60  52 SE9       30.03F
JEFFERSON CITY SUNNY     81  58  45 SE10      30.01F
ROLLA          SUNNY     80  59  48 S6        30.05F
OSAGE BEACH    SUNNY     80  64  58 SE8       30.03F
SPRINGFIELD    CLOUDY    81  65  58 S8        30.02F
BRANSON        PTSUNNY   82  63  51 SE6       30.06F
JOPLIN         MOSUNNY   84  66  54 SE9       29.99F
WEST PLAINS    MOSUNNY   78  61  55 SE7       30.08F

$$

IAZ060-094-KSZ022-034>040-054-083-096-NEZ052-066-093-272300-
...KANSAS...SOUTHEAST NEBRASKA AND IOWA...

CITY           SKY/WX    TMP DP  RH WIND       PRES   REMARKS
TOPEKA         CLOUDY    82  69  64 S14       29.92F
MANHATTAN      MOSUNNY   84  70  62 S17G24    29.87F
EMPORIA        SUNNY     83  66  56 S16       29.92F
CHANUTE        SUNNY     86  63  45 S16G22    29.95F
WICHITA        MOSUNNY   92  68  45 S20G28    29.87F HX  96
OMAHA          MOSUNNY   81  62  52 S24G30    29.87F
LINCOLN        PTSUNNY   83  66  56 S22G30    29.84F
FALLS CITY     MOSUNNY   80  65  59 SE17      29.91F
LAMONI         SUNNY     78  59  51 S13G21    29.97F
DES MOINES     PTSUNNY   80  51  36 SE15      29.95F

$$





USA.gov is the U.S. government's official web portal to all federal, state and local government web resources and services.